Location: Kershaw
(34.5481°N, 80.5823°W)
Time: 23:47:59
(UTC+00:00)

Transit 4A - Pass Details

Date: 13 October 2022
Orbit: 871 x 972 km, 66.8° (Epoch: 09 December)

Event Time Altitude Azimuth Distance (km) Brightness Sun altitude
Rises 01:23:21 0° 225° (SW) 3,605 11.4 -31.9°
Reaches altitude 10° 01:26:04 10° 232° (SW) 2,649 10.7 -32.4°
Maximum altitude 01:31:51 42° 302° (WNW) 1,303 8.9 -33.6°
Enters shadow 01:34:36 27° 353° (N) 1,695 9.4 -34.1°
